Radiation Dose at Monitoring Post of Fukushima Daini Nuclear Power Station
Date,Time,MP-1(microSv/h),MP-2(microSv/h),MP-3(microSv/h),MP-4(microSv/h),MP-5(microSv/h),MP-6(microSv/h),MP-7(microSv/h),Wind Direction,Wind Velocity(m/s),Rain
2017/12/06,00:00,0.332,0.208,0.340,0.321,0.310,0.168,0.100,north,9.5,No
2017/12/06,00:10,0.330,0.209,0.341,0.322,0.309,0.167,0.102,north,9.0,No
2017/12/06,00:20,0.330,0.208,0.340,0.321,0.311,0.168,0.101,north-northwest,8.6,No
2017/12/06,00:30,0.332,0.209,0.341,0.320,0.308,0.168,0.101,north-northwest,7.4,No
2017/12/06,00:40,0.331,0.209,0.341,0.320,0.312,0.168,0.101,north,9.0,No
2017/12/06,00:50,0.331,0.209,0.339,0.321,0.308,0.168,0.100,north-northwest,8.7,No
2017/12/06,01:00,0.331,0.208,0.340,0.322,0.310,0.168,0.100,north-northwest,8.8,No
2017/12/06,01:10,0.331,0.208,0.341,0.321,0.308,0.168,0.100,north-northwest,8.8,No
2017/12/06,01:20,0.333,0.208,0.339,0.321,0.310,0.169,0.100,north-northwest,8.4,No
2017/12/06,01:30,0.331,0.208,0.340,0.321,0.310,0.169,0.100,north-northwest,8.5,No
2017/12/06,01:40,0.331,0.209,0.339,0.321,0.310,0.168,0.101,north-northwest,7.9,No
2017/12/06,01:50,0.332,0.208,0.341,0.321,0.308,0.168,0.101,north-northwest,8.1,No
2017/12/06,02:00,0.332,0.209,0.343,0.321,0.309,0.168,0.100,north-northwest,7.9,No
2017/12/06,02:10,0.332,0.209,0.340,0.320,0.309,0.169,0.101,north-northwest,7.7,No
2017/12/06,02:20,0.332,0.210,0.340,0.321,0.310,0.169,0.101,north-northwest,7.3,No
2017/12/06,02:30,0.332,0.209,0.340,0.322,0.308,0.169,0.102,north-northwest,7.4,No
2017/12/06,02:40,0.332,0.208,0.341,0.321,0.309,0.169,0.101,north-northwest,7.0,No
2017/12/06,02:50,0.332,0.209,0.340,0.320,0.309,0.169,0.101,north-northwest,7.3,No
2017/12/06,03:00,0.332,0.209,0.341,0.321,0.309,0.169,0.101,north-northwest,6.6,No
2017/12/06,03:10,0.333,0.209,0.341,0.322,0.310,0.169,0.102,north-northwest,7.0,No
2017/12/06,03:20,0.331,0.208,0.341,0.322,0.309,0.169,0.101,north-northwest,7.3,No
2017/12/06,03:30,0.332,0.209,0.341,0.323,0.309,0.168,0.101,north-northwest,6.6,No
2017/12/06,03:40,0.334,0.210,0.343,0.321,0.310,0.169,0.101,north-northwest,6.5,No
2017/12/06,03:50,0.333,0.210,0.342,0.323,0.310,0.169,0.102,northwest,6.6,No
2017/12/06,04:00,0.333,0.210,0.343,0.323,0.310,0.169,0.103,north-northwest,6.6,Yes
2017/12/06,04:10,0.333,0.211,0.342,0.322,0.311,0.170,0.102,north-northwest,6.3,No
2017/12/06,04:20,0.334,0.210,0.342,0.321,0.310,0.170,0.102,north-northwest,6.5,Yes
2017/12/06,04:30,0.333,0.211,0.344,0.322,0.311,0.170,0.102,north-northwest,7.0,No
2017/12/06,04:40,0.333,0.211,0.342,0.323,0.309,0.170,0.102,north,6.2,No
2017/12/06,04:50,0.335,0.211,0.342,0.322,0.310,0.170,0.102,north,6.3,No
2017/12/06,05:00,0.333,0.211,0.343,0.322,0.309,0.170,0.102,north,6.0,No
2017/12/06,05:10,0.333,0.211,0.342,0.323,0.309,0.170,0.101,north-northwest,5.9,No
2017/12/06,05:20,0.332,0.209,0.342,0.322,0.309,0.169,0.102,north-northwest,5.5,No
2017/12/06,05:30,0.333,0.209,0.342,0.322,0.308,0.169,0.101,north-northwest,6.2,No
2017/12/06,05:40,0.331,0.209,0.341,0.321,0.309,0.169,0.101,north-northwest,6.0,No
2017/12/06,05:50,0.333,0.209,0.342,0.323,0.309,0.169,0.102,north-northwest,5.4,No
2017/12/06,06:00,0.332,0.209,0.340,0.321,0.308,0.170,0.101,north-northwest,6.4,No
2017/12/06,06:10,0.332,0.208,0.340,0.323,0.308,0.169,0.101,north,6.0,No
2017/12/06,06:20,0.332,0.210,0.341,0.321,0.309,0.169,0.101,north,5.7,No
2017/12/06,06:30,0.332,0.210,0.340,0.321,0.307,0.169,0.100,north-northwest,5.3,No
2017/12/06,06:40,0.333,0.210,0.341,0.319,0.309,0.168,0.101,north-northwest,3.4,No
2017/12/06,06:50,0.332,0.209,0.341,0.322,0.309,0.169,0.102,north-northwest,3.6,No
2017/12/06,07:00,0.332,0.208,0.341,0.321,0.309,0.169,0.101,north,6.7,No
2017/12/06,07:10,0.333,0.209,0.341,0.321,0.311,0.169,0.101,north,6.4,No
2017/12/06,07:20,0.333,0.211,0.342,0.322,0.309,0.168,0.101,north,7.4,No
2017/12/06,07:30,0.333,0.210,0.342,0.322,0.308,0.169,0.101,north,7.3,No
2017/12/06,07:40,0.332,0.210,0.342,0.322,0.309,0.169,0.101,north,7.1,No
2017/12/06,07:50,0.332,0.210,0.340,0.322,0.309,0.169,0.102,north,7.0,No
2017/12/06,08:00,0.333,0.209,0.342,0.321,0.309,0.169,0.102,north,6.7,No
2017/12/06,08:10,0.332,0.210,0.342,0.321,0.308,0.169,0.101,north-northwest,5.0,No
2017/12/06,08:20,0.331,0.209,0.342,0.321,0.309,0.169,0.102,north-northwest,5.2,No
2017/12/06,08:30,0.333,0.209,0.341,0.321,0.310,0.169,0.101,north-northwest,5.1,No
2017/12/06,08:40,0.332,0.210,0.340,0.322,0.307,0.169,0.101,north,5.0,No
2017/12/06,08:50,0.331,0.209,0.340,0.321,0.309,0.170,0.102,north,3.2,No
2017/12/06,09:00,0.332,0.208,0.343,0.323,0.309,0.169,0.101,north,3.4,No
2017/12/06,09:10,0.331,0.210,0.342,0.321,0.309,0.170,0.102,north,3.6,No
2017/12/06,09:20,0.332,0.209,0.342,0.321,0.309,0.169,0.100,north,2.8,No
2017/12/06,09:30,0.332,0.209,0.340,0.321,0.309,0.169,0.101,north-northwest,2.9,No
2017/12/06,09:40,0.331,0.209,0.340,0.321,0.309,0.169,0.101,north-northwest,4.6,No
2017/12/06,09:50,0.333,0.209,0.340,0.320,0.308,0.169,0.100,north,6.0,No
2017/12/06,10:00,0.332,0.209,0.340,0.321,0.308,0.169,0.101,north,6.5,No
2017/12/06,10:10,0.332,0.209,0.342,0.321,0.308,0.170,0.100,north,5.9,No
2017/12/06,10:20,0.330,0.209,0.342,0.319,0.308,0.169,0.101,north,6.2,No
2017/12/06,10:30,0.331,0.209,0.342,0.322,0.310,0.170,0.101,north,6.6,No
2017/12/06,10:40,0.331,0.209,0.342,0.320,0.309,0.169,0.101,north,4.8,No
2017/12/06,10:50,0.331,0.210,0.342,0.321,0.309,0.170,0.101,north-northwest,7.0,No
2017/12/06,11:00,0.333,0.208,0.343,0.321,0.311,0.170,0.101,north-northwest,6.3,No
2017/12/06,11:10,0.331,0.210,0.343,0.321,0.309,0.170,0.100,north-northwest,5.1,No
2017/12/06,11:20,0.332,0.210,0.339,0.321,0.310,0.169,0.101,north,6.2,No
2017/12/06,11:30,0.333,0.208,0.342,0.322,0.311,0.171,0.101,north,5.1,No
2017/12/06,11:40,0.331,0.210,0.342,0.320,0.310,0.170,0.101,north,3.5,No
2017/12/06,11:50,0.332,0.210,0.340,0.322,0.310,0.169,0.101,north,5.1,No
2017/12/06,12:00,0.330,0.209,0.341,0.319,0.309,0.170,0.100,north,6.5,No
2017/12/06,12:10,0.331,0.210,0.342,0.320,0.310,0.170,0.101,north-northwest,5.0,No
2017/12/06,12:20,0.332,0.209,0.339,0.320,0.309,0.170,0.101,north-northwest,4.5,No
2017/12/06,12:30,0.331,0.210,0.341,0.322,0.311,0.169,0.100,north,3.2,No
2017/12/06,12:40,0.331,0.209,0.341,0.323,0.311,0.169,0.101,northwest,2.9,No
2017/12/06,12:50,0.333,0.211,0.342,0.322,0.311,0.170,0.101,north-northwest,1.2,No
2017/12/06,13:00,0.333,0.208,0.342,0.322,0.311,0.170,0.101,north-northwest,4.3,No
2017/12/06,13:10,0.332,0.209,0.342,0.323,0.313,0.170,0.101,north-northeast,3.7,No
2017/12/06,13:20,0.331,0.209,0.340,0.320,0.311,0.171,0.100,northeast,5.7,No
2017/12/06,13:30,0.333,0.209,0.341,0.322,0.310,0.170,0.101,northeast,4.2,No
2017/12/06,13:40,0.334,0.209,0.342,0.322,0.310,0.169,0.101,northeast,5.2,No
2017/12/06,13:50,0.332,0.209,0.341,0.322,0.309,0.171,0.102,north-northeast,5.1,No
2017/12/06,14:00,0.333,0.209,0.344,0.323,0.309,0.170,0.101,north-northeast,3.7,No
2017/12/06,14:10,0.333,0.210,0.343,0.322,0.309,0.170,0.101,north-northeast,5.3,No
2017/12/06,14:20,0.333,0.210,0.342,0.322,0.308,0.169,0.101,north-northeast,5.4,No
2017/12/06,14:30,0.334,0.211,0.343,0.323,0.311,0.169,0.102,north-northeast,7.0,No
2017/12/06,14:40,0.334,0.210,0.342,0.322,0.310,0.169,0.101,north-northeast,5.9,No
2017/12/06,14:50,0.333,0.210,0.341,0.322,0.308,0.169,0.101,north-northeast,4.6,No
2017/12/06,15:00,0.333,0.210,0.342,0.323,0.310,0.168,0.100,north-northeast,7.9,No
2017/12/06,15:10,0.332,0.209,0.343,0.323,0.311,0.170,0.102,north,7.7,No
2017/12/06,15:20,0.333,0.210,0.341,0.323,0.311,0.170,0.102,north,7.0,No
2017/12/06,15:30,0.333,0.211,0.341,0.324,0.311,0.170,0.100,north,6.7,No
2017/12/06,15:40,0.333,0.210,0.343,0.323,0.310,0.170,0.102,north-northeast,7.0,No
2017/12/06,15:50,0.332,0.209,0.342,0.323,0.309,0.171,0.102,north-northeast,6.7,No
2017/12/06,16:00,0.334,0.210,0.342,0.323,0.311,0.170,0.101,north-northeast,5.1,No
2017/12/06,16:10,0.334,0.211,0.342,0.324,0.310,0.171,0.101,north,4.8,No
2017/12/06,16:20,0.334,0.210,0.342,0.322,0.310,0.169,0.101,north,5.3,No
2017/12/06,16:30,0.333,0.211,0.343,0.322,0.310,0.170,0.102,north,6.2,No
2017/12/06,16:40,0.332,0.210,0.341,0.323,0.309,0.171,0.101,north,4.6,No
2017/12/06,16:50,0.333,0.209,0.342,0.322,0.310,0.170,0.101,north,3.9,No
2017/12/06,17:00,0.334,0.210,0.343,0.324,0.308,0.170,0.101,north-northwest,3.8,No
2017/12/06,17:10,0.333,0.210,0.341,0.322,0.310,0.170,0.100,north,4.8,No
2017/12/06,17:20,0.333,0.209,0.342,0.323,0.309,0.169,0.101,north-northwest,5.0,No
2017/12/06,17:30,0.332,0.211,0.341,0.323,0.310,0.170,0.102,north,5.1,No
2017/12/06,17:40,0.334,0.210,0.343,0.324,0.310,0.169,0.102,north-northwest,5.6,No
2017/12/06,17:50,0.333,0.210,0.342,0.324,0.309,0.169,0.101,north-northwest,6.2,No
2017/12/06,18:00,0.333,0.209,0.342,0.322,0.310,0.170,0.100,north-northwest,6.3,No
2017/12/06,18:10,0.333,0.210,0.343,0.324,0.309,0.170,0.101,north,6.1,No
2017/12/06,18:20,0.333,0.210,0.344,0.322,0.310,0.170,0.101,north-northwest,5.1,No
2017/12/06,18:30,0.334,0.209,0.342,0.324,0.308,0.169,0.102,north,6.1,No
2017/12/06,18:40,0.333,0.209,0.343,0.323,0.310,0.169,0.101,north-northwest,5.9,No
2017/12/06,18:50,0.334,0.210,0.342,0.324,0.310,0.170,0.101,north-northwest,6.0,No
2017/12/06,19:00,0.334,0.210,0.342,0.323,0.308,0.170,0.101,north-northwest,7.3,No
2017/12/06,19:10,0.333,0.211,0.342,0.324,0.307,0.169,0.100,north,7.8,No
2017/12/06,19:20,0.333,0.211,0.345,0.324,0.309,0.169,0.101,north-northwest,8.8,No
2017/12/06,19:30,0.333,0.210,0.344,0.325,0.310,0.170,0.101,north-northwest,7.6,No
2017/12/06,19:40,0.334,0.211,0.342,0.323,0.310,0.170,0.100,north-northwest,7.1,No
2017/12/06,19:50,0.333,0.209,0.343,0.323,0.309,0.171,0.101,north-northwest,6.5,No
2017/12/06,20:00,0.333,0.210,0.342,0.324,0.308,0.170,0.102,north-northwest,5.6,No
2017/12/06,20:10,0.334,0.210,0.343,0.322,0.309,0.170,0.101,north-northwest,5.7,No
2017/12/06,20:20,0.335,0.210,0.343,0.322,0.309,0.170,0.101,north-northwest,5.6,No
2017/12/06,20:30,0.334,0.210,0.341,0.322,0.309,0.171,0.100,north-northwest,4.8,No
2017/12/06,20:40,0.333,0.210,0.343,0.322,0.309,0.170,0.101,north-northwest,4.2,No
2017/12/06,20:50,0.333,0.211,0.342,0.323,0.308,0.170,0.101,north,4.8,No
2017/12/06,21:00,0.334,0.210,0.342,0.325,0.310,0.170,0.102,north-northwest,3.8,No
2017/12/06,21:10,0.333,0.210,0.343,0.323,0.309,0.170,0.101,north-northwest,5.2,No
2017/12/06,21:20,0.334,0.210,0.342,0.322,0.310,0.170,0.101,north-northwest,6.3,No
2017/12/06,21:30,0.334,0.209,0.342,0.321,0.309,0.170,0.101,north-northwest,5.1,No
2017/12/06,21:40,0.334,0.211,0.344,0.323,0.309,0.169,0.101,north-northwest,5.1,No
2017/12/06,21:50,0.333,0.209,0.343,0.322,0.310,0.170,0.102,north-northwest,5.3,No
2017/12/06,22:00,0.333,0.209,0.342,0.322,0.309,0.169,0.101,north,5.7,No
2017/12/06,22:10,0.333,0.210,0.343,0.322,0.308,0.170,0.102,north-northwest,5.9,No
2017/12/06,22:20,0.333,0.211,0.342,0.322,0.309,0.170,0.100,north-northwest,6.6,No
2017/12/06,22:30,0.334,0.211,0.343,0.321,0.309,0.170,0.101,north-northwest,5.9,No
2017/12/06,22:40,0.334,0.209,0.342,0.324,0.310,0.170,0.100,north,6.7,No
2017/12/06,22:50,0.335,0.210,0.343,0.323,0.310,0.169,0.101,north-northwest,6.3,No
2017/12/06,23:00,0.335,0.210,0.342,0.323,0.308,0.170,0.101,north-northwest,6.2,No
2017/12/06,23:10,0.335,0.210,0.342,0.322,0.310,0.170,0.101,north,6.4,No
2017/12/06,23:20,0.334,0.210,0.342,0.322,0.309,0.170,0.101,north-northwest,6.6,No
2017/12/06,23:30,0.333,0.210,0.342,0.324,0.310,0.169,0.101,north-northwest,7.3,No
2017/12/06,23:40,0.333,0.210,0.342,0.323,0.309,0.169,0.101,north-northwest,7.1,No
2017/12/06,23:50,0.334,0.210,0.344,0.324,0.309,0.170,0.101,north-northwest,6.4,No
